Temp
58 58 52 51 52 52 51 51 48 49 52 52 48 50 52 55 55 53 56 56 57 58 60 61 61 62 62 61 62 60 61 60 62 62 61 61 60 61 61 62 60 60 60 60
57 48 51 53 54 54 53 50 46 49 51 52 47 49 52 53 54 55 56 57 58 58 59 59 61 61 60 60 60 62 62 61 61 62 61 61 61 61 61 61 60 60 60 59
51 50 53 52 52 52 48 49 46 48 50 51 49 46 48 53 54 55 56 57 57 58 59 59 59 60 59 59 59 60 60 61 61 60 63 63 62 62 61 60 60 60 59 59
48 52 51 50 48 51 47 51 50 48 49 45 49 45 46 51 51 53 56 56 57 58 58 59 60 60 60 60 60 60 60 61 61 60 61 59 59 59 59 58 59 60 59 59
45 48 49 49 47 51 48 52 51 49 47 46 44 44 50 48 48 52 55 56 56 58 59 60 60 61 62 61 61 61 60 60 60 59 59 60 59 60 60 60 58 58 59 59
46 52 50 50 50 51 51 51 49 47 46 41 43 44 52 47 51 54 56 56 56 57 58 59 60 60 61 60 59 59 60 61 61 60 59 59 58 58 59 59 58 59 59 59
46 46 50 52 51 53 51 47 38 40 38 38 43 41 50 52 52 56 55 56 56 57 57 58 59 60 60 60 60 59 59 60 61 60 59 59 58 58 58 59 59 58 58 59
42 39 46 49 48 49 46 47 38 34 36 41 42 40 48 52 53 55 58 59 57 56 57 58 60 60 61 60 61 61 61 61 61 60 59 59 59 60 60 59 59 59 58 59
40 38 47 48 50 50 45 43 45 37 35 37 44 46 50 51 50 51 53 54 55 56 57 58 59 59 60 61 61 60 60 61 61 61 60 59 59 58 59 59 58 59 58 59
43 37 45 47 50 49 47 47 39 35 32 31 40 40 46 47 49 49 50 53 55 56 56 58 59 59 60 60 60 58 59 59 60 60 59 60 59 59 59 58 57 58 58 58
44 41 40 46 43 43 42 41 37 39 37 36 36 45 47 47 50 50 52 54 56 56 57 57 56 58 59 59 59 59 59 59 59 60 59 58 58 58 58 57 58 57 58 58
44 38 35 40 44 46 44 43 42 36 32 34 36 43 49 48 49 51 52 52 54 54 55 56 56 56 57 57 58 58 57 58 58 58 57 57 58 58 57 57 57 58 56 58
44 38 31 37 41 41 39 36 30 31 37 35 35 43 49 48 48 50 52 51 51 52 53 54 54 54 54 54 55 56 56 55 56 57 57 56 56 56 56 56 57 57 56 57
47 38 35 37 36 36 30 29 27 32 33 36 39 42 45 46 47 48 48 49 50 51 50 51 50 50 51 51 52 52 53 53 54 54 54 53 53 53 54 54 55 55 55 55
46 35 33 33 37 39 38 35 32 29 36 39 42 41 45 48 47 47 48 48 48 48 47 47 47 48 49 49 50 51 51 51 52 51 51 50 51 52 52 52 52 53 53 54
41 34 38 33 38 38 37 39 37 37 39 38 38 40 47 46 47 46 47 47 45 45 45 45 46 46 46 47 47 49 49 49 50 49 49 50 50 50 49 50 50 51 51 52
40 34 35 31 36 38 34 39 39 39 40 42 37 46 44 42 44 44 44 45 43 43 43 43 44 45 46 46 47 47 47 49 48 47 48 48 48 47 47 48 48 48 48 49
38 34 32 29 34 29 43 46 46 42 41 43 43 43 45 45 44 45 46 45 43 43 43 43 44 45 46 47 47 47 48 47 46 46 46 47 46 46 46 46 46 46 46 46
42 36 27 28 30 38 40 41 42 40 43 45 44 43 43 43 43 40 44 45 44 43 43 44 45 45 46 46 47 47 46 46 45 45 45 45 45 44 44 43 43 44 44 43
40 39 36 28 29 28 40 46 49 48 39 45 45 42 41 42 39 42 43 44 44 45 45 44 45 45 45 45 46 45 45 44 43 43 43 45 44 43 42 42 42 42 40 39
35 32 30 26 30 36 43 47 49 37 40 44 46 44 43 41 43 43 44 44 45 45 44 45 45 44 45 45 44 43 43 42 43 43 43 43 43 42 42 42 42 40 39 39
34 31 29 27 28 28 44 46 41 44 43 45 45 44 43 41 41 42 44 44 44 44 44 45 43 44 45 45 43 42 41 43 42 42 41 41 41 42 42 41 42 42 41 40
35 38 34 36 36 40 42 42 43 45 45 43 44 44 43 41 42 43 43 43 43 43 44 45 43 43 44 43 43 40 40 41 40 40 39 40 41 41 42 40 40 40 40 38
40 42 37 37 38 40 40 42 44 46 45 45 45 44 44 42 43 42 43 42 42 42 42 43 43 41 40 42 41 41 40 40 39 38 38 39 39 38 39 40 40 38 37 36
41 42 39 35 37 40 41 43 44 44 45 44 44 44 43 43 42 42 40 40 41 41 43 43 41 40 39 40 40 41 40 39 37 37 37 37 38 37 38 38 37 36 37 36
42 40 38 38 41 41 40 43 45 43 42 43 42 41 42 43 41 40 39 40 41 41 41 40 40 39 39 39 39 40 40 38 36 35 36 35 35 35 34 34 34 34 34 34
MSLP
1023.26 1023.65 1025.35 1026.13 1026.14 1026.07 1026.49 1027.40 1028.65 1029.68 1030.03 1030.14 1030.81 1031.17 1031.68 1032.36 1032.76 1032.96 1032.91 1032.94 1033.17 1033.39 1033.83 1033.93 1033.99 1034.19 1034.00 1033.96 1033.83 1033.74 1033.61 1033.76 1033.20 1032.71 1032.40 1032.36 1032.33 1032.24 1031.92 1031.75 1031.62 1031.39 1031.15 1030.62
1024.47 1025.86 1026.93 1026.92 1026.70 1026.61 1027.09 1027.89 1029.11 1029.95 1030.21 1030.32 1031.09 1031.24 1031.79 1032.18 1032.32 1032.54 1032.58 1032.65 1032.87 1033.23 1033.54 1033.74 1033.94 1034.00 1034.13 1034.16 1034.06 1033.96 1033.90 1033.76 1033.51 1033.15 1033.12 1032.95 1032.79 1032.64 1032.59 1032.23 1031.93 1031.73 1031.36 1031.09
1025.52 1027.16 1027.12 1027.17 1027.46 1027.41 1028.33 1028.39 1029.21 1029.62 1030.27 1030.68 1031.08 1031.44 1031.56 1031.83 1032.29 1032.49 1032.68 1032.81 1033.09 1033.29 1033.47 1033.71 1033.91 1034.03 1034.18 1034.27 1034.34 1034.24 1034.06 1033.81 1033.55 1033.54 1033.20 1033.10 1032.97 1032.97 1032.50 1032.29 1032.02 1031.96 1031.77 1031.44
1027.43 1027.78 1027.56 1027.80 1028.15 1028.43 1028.73 1029.19 1029.18 1029.51 1029.88 1030.51 1031.02 1030.27 1030.33 1030.84 1031.41 1031.78 1032.11 1032.51 1032.79 1033.20 1033.48 1033.56 1033.68 1033.89 1034.00 1034.10 1034.33 1034.31 1034.06 1033.80 1033.59 1033.61 1033.41 1033.41 1033.03 1032.72 1032.84 1032.69 1032.38 1031.96 1031.83 1031.57
1028.67 1028.56 1028.35 1028.58 1029.06 1028.73 1029.27 1029.37 1029.57 1029.92 1029.83 1030.25 1030.59 1030.60 1029.07 1030.21 1030.52 1030.68 1031.20 1031.84 1032.46 1032.86 1033.09 1033.23 1033.39 1033.63 1033.82 1034.09 1034.24 1034.25 1034.19 1033.89 1033.70 1033.58 1033.62 1033.53 1033.25 1033.16 1032.94 1032.61 1032.34 1032.01 1031.73 1031.56
1028.74 1028.90 1029.04 1029.19 1029.32 1028.94 1029.44 1029.61 1029.94 1030.12 1030.09 1030.11 1030.19 1030.24 1028.43 1029.31 1028.99 1029.69 1030.60 1031.26 1031.92 1032.53 1032.97 1033.12 1033.38 1033.66 1033.72 1034.04 1034.09 1034.07 1034.05 1033.78 1033.54 1033.42 1033.58 1033.64 1033.42 1033.01 1032.76 1032.60 1032.33 1032.02 1031.75 1031.54
1029.11 1029.56 1029.52 1029.37 1029.45 1029.60 1029.63 1029.91 1030.28 1030.43 1030.55 1030.54 1030.66 1030.44 1028.14 1028.54 1029.00 1029.07 1029.58 1030.66 1031.57 1032.24 1032.73 1032.91 1033.10 1033.30 1033.47 1033.58 1033.68 1033.79 1033.74 1033.48 1033.39 1033.30 1033.39 1033.44 1033.33 1033.14 1032.73 1032.46 1032.27 1032.07 1031.70 1031.45
1029.13 1030.20 1029.86 1029.81 1029.72 1029.58 1030.16 1030.29 1030.37 1030.63 1030.98 1030.70 1030.81 1029.68 1028.27 1028.52 1028.95 1029.08 1029.27 1030.02 1031.25 1032.01 1032.50 1032.72 1032.82 1033.03 1033.17 1033.25 1033.23 1033.19 1033.08 1032.99 1033.00 1033.01 1033.02 1033.12 1033.13 1032.81 1032.49 1032.25 1032.16 1032.03 1031.74 1031.40
1029.04 1030.28 1030.59 1030.20 1030.05 1030.43 1030.82 1031.18 1031.45 1031.57 1032.15 1031.33 1029.80 1029.02 1028.36 1028.68 1028.96 1029.27 1029.54 1030.23 1031.01 1031.75 1032.18 1032.45 1032.65 1032.90 1032.93 1032.90 1032.81 1032.97 1032.97 1032.73 1032.72 1032.69 1032.71 1032.59 1032.52 1032.38 1032.03 1031.90 1031.90 1031.66 1031.49 1031.24
1029.01 1030.34 1031.07 1030.85 1030.52 1031.11 1031.12 1031.66 1032.25 1032.13 1031.98 1031.15 1029.75 1029.05 1028.26 1028.71 1028.98 1029.62 1029.99 1030.32 1031.07 1031.79 1032.24 1032.36 1032.50 1032.78 1033.10 1033.18 1033.24 1033.26 1033.15 1032.91 1032.61 1032.45 1032.33 1032.09 1031.98 1031.84 1031.58 1031.47 1031.27 1031.19 1030.91 1030.80
1029.10 1029.84 1031.75 1031.36 1031.08 1031.11 1032.16 1032.12 1032.66 1032.56 1032.20 1031.18 1030.26 1028.67 1028.76 1029.09 1029.37 1029.64 1030.04 1030.52 1030.98 1031.59 1032.07 1032.62 1032.86 1033.06 1033.08 1033.04 1033.02 1032.90 1032.84 1032.64 1032.34 1032.10 1031.85 1031.61 1031.23 1031.10 1031.12 1031.02 1030.62 1030.39 1030.30 1030.14
1029.30 1030.33 1031.67 1031.95 1031.92 1031.84 1031.99 1032.37 1032.32 1032.51 1032.70 1031.93 1031.08 1029.42 1029.30 1029.42 1029.66 1030.03 1030.43 1031.11 1031.68 1032.11 1032.42 1032.65 1032.83 1033.03 1033.14 1033.19 1033.11 1033.01 1032.90 1032.65 1032.36 1031.91 1031.63 1031.24 1030.97 1030.77 1030.62 1030.35 1030.13 1030.06 1029.89 1029.54
1029.04 1030.37 1031.75 1032.39 1032.74 1032.62 1032.72 1033.23 1033.42 1033.27 1032.73 1031.68 1030.91 1029.47 1029.66 1029.86 1029.87 1030.40 1030.89 1031.52 1031.93 1032.28 1032.65 1033.05 1033.27 1033.47 1033.68 1033.73 1033.62 1033.40 1033.26 1032.99 1032.66 1032.17 1031.66 1031.27 1031.00 1030.73 1030.49 1030.14 1029.76 1029.54 1029.35 1028.98
1028.45 1030.03 1030.76 1031.19 1031.21 1031.80 1032.96 1033.41 1033.89 1033.37 1032.95 1031.42 1030.12 1029.65 1030.01 1030.45 1030.52 1030.91 1031.42 1031.90 1032.43 1032.90 1033.41 1033.81 1034.01 1034.25 1034.45 1034.46 1034.27 1034.03 1033.86 1033.68 1033.25 1032.71 1032.26 1031.86 1031.53 1031.14 1030.61 1030.17 1029.73 1029.32 1028.93 1028.52
1028.81 1030.04 1031.03 1031.68 1031.55 1031.51 1031.70 1032.31 1033.09 1032.88 1031.94 1031.11 1030.16 1029.92 1030.04 1030.62 1031.13 1031.47 1032.00 1032.60 1033.15 1033.73 1034.17 1034.55 1034.77 1034.91 1034.98 1034.86 1034.65 1034.48 1034.30 1034.02 1033.69 1033.24 1032.82 1032.53 1032.04 1031.49 1030.96 1030.30 1029.76 1029.23 1028.68 1028.09
1029.47 1030.53 1031.02 1031.65 1031.71 1031.58 1031.28 1031.16 1031.63 1031.83 1031.45 1031.01 1030.80 1030.44 1030.57 1031.27 1031.82 1032.32 1032.78 1033.30 1033.83 1034.40 1034.88 1035.21 1035.32 1035.38 1035.41 1035.30 1035.15 1034.97 1034.85 1034.57 1034.23 1033.78 1033.33 1032.86 1032.39 1031.80 1031.24 1030.67 1030.00 1029.24 1028.51 1027.76
1029.80 1030.55 1031.39 1031.74 1031.47 1031.20 1030.56 1029.23 1029.75 1030.01 1030.02 1029.89 1030.24 1029.93 1030.83 1031.80 1032.33 1032.79 1033.42 1033.89 1034.38 1034.92 1035.33 1035.63 1035.82 1035.88 1035.94 1035.89 1035.78 1035.49 1035.29 1034.99 1034.60 1034.13 1033.63 1033.20 1032.65 1032.05 1031.39 1030.81 1030.11 1029.36 1028.62 1027.81
1030.09 1030.45 1031.42 1032.18 1031.32 1030.59 1028.34 1028.24 1028.40 1028.67 1029.05 1029.50 1029.77 1030.35 1030.91 1031.75 1032.94 1033.58 1034.06 1034.42 1034.96 1035.32 1035.70 1036.05 1036.17 1036.14 1036.10 1035.99 1035.79 1035.61 1035.31 1035.02 1034.67 1034.19 1033.79 1033.30 1032.81 1032.21 1031.52 1030.82 1030.12 1029.38 1028.63 1027.77
1029.87 1030.26 1031.59 1032.11 1031.18 1029.38 1028.12 1028.21 1028.31 1028.34 1028.08 1028.57 1029.40 1030.48 1031.48 1032.57 1033.44 1034.29 1034.71 1035.03 1035.35 1035.73 1036.05 1036.30 1036.37 1036.32 1036.23 1036.14 1035.98 1035.70 1035.30 1035.03 1034.65 1034.23 1033.80 1033.29 1032.71 1032.05 1031.45 1030.74 1030.04 1029.32 1028.54 1027.81
1030.54 1030.34 1030.76 1032.00 1031.24 1029.47 1028.14 1027.91 1027.91 1028.06 1028.26 1028.57 1029.41 1030.59 1031.51 1032.64 1033.23 1033.83 1034.87 1035.33 1035.64 1035.89 1036.15 1036.35 1036.46 1036.49 1036.35 1036.17 1035.94 1035.53 1035.06 1034.71 1034.32 1034.04 1033.59 1033.12 1032.55 1031.89 1031.24 1030.62 1029.80 1029.13 1028.52 1027.67
1030.74 1031.07 1031.27 1031.78 1031.09 1029.25 1028.20 1028.22 1028.33 1028.68 1029.22 1029.12 1029.82 1030.78 1031.78 1032.51 1033.26 1033.87 1034.86 1035.38 1035.64 1035.92 1036.32 1036.53 1036.47 1036.31 1036.19 1036.05 1035.84 1035.39 1034.99 1034.61 1034.44 1034.00 1033.50 1032.92 1032.35 1031.61 1030.94 1030.24 1029.54 1028.79 1027.97 1027.13
1029.63 1030.35 1031.10 1031.70 1031.42 1029.84 1028.69 1028.82 1029.18 1029.27 1029.29 1029.59 1030.48 1031.24 1032.18 1032.95 1033.73 1034.30 1034.94 1035.39 1035.80 1036.15 1036.34 1036.39 1036.34 1036.22 1036.09 1036.00 1035.75 1035.35 1034.96 1034.68 1034.40 1033.91 1033.32 1032.67 1031.98 1031.25 1030.46 1029.70 1028.84 1028.10 1027.21 1026.14
1029.08 1028.71 1029.13 1029.80 1029.72 1029.53 1029.55 1029.71 1029.59 1029.91 1029.58 1030.37 1031.02 1031.99 1032.62 1033.42 1034.03 1034.63 1035.08 1035.54 1035.93 1036.17 1036.29 1036.36 1036.26 1036.06 1035.93 1035.89 1035.62 1035.18 1034.82 1034.54 1034.09 1033.58 1032.99 1032.34 1031.62 1030.87 1030.14 1029.35 1028.45 1027.58 1026.93 1026.01
1028.50 1028.43 1028.83 1029.49 1029.76 1029.82 1029.95 1030.11 1030.23 1030.66 1030.65 1031.14 1031.72 1032.36 1033.11 1033.71 1034.27 1034.77 1035.27 1035.76 1036.09 1036.30 1036.27 1036.14 1035.95 1035.74 1035.72 1035.69 1035.52 1035.11 1034.72 1034.37 1033.89 1033.32 1032.69 1031.99 1031.21 1030.53 1029.85 1029.14 1028.36 1027.59 1026.70 1025.67
1027.79 1028.13 1028.71 1029.64 1030.10 1030.21 1030.34 1030.44 1030.74 1031.22 1031.69 1032.05 1032.59 1033.04 1033.67 1034.21 1034.79 1035.22 1035.70 1036.11 1036.31 1036.33 1036.16 1035.96 1035.72 1035.55 1035.54 1035.41 1035.08 1034.74 1034.42 1034.09 1033.64 1033.14 1032.48 1031.76 1030.99 1030.14 1029.31 1028.64 1028.16 1027.52 1026.57 1025.87
1027.52 1027.87 1028.57 1028.57 1028.65 1029.26 1030.32 1030.99 1031.47 1031.81 1032.43 1032.90 1033.29 1033.94 1034.57 1034.95 1035.41 1035.82 1036.13 1036.35 1036.37 1036.24 1036.05 1035.82 1035.62 1035.37 1035.10 1034.85 1034.54 1034.33 1034.11 1033.92 1033.52 1032.83 1032.10 1031.50 1030.79 1029.90 1029.21 1028.55 1027.43 1026.44 1026.20 1025.22
Wind_Speed
7 11 10 2 4 3 10 13 10 4 3 4 1 9 13 9 8 8 8 7 6 5 3 2 2 1 3 6 7 8 10 9 7 6 6 6 7 8 8 9 11 12 12 13
7 7 3 2 5 11 12 15 7 4 5 3 6 11 9 8 7 8 8 7 6 3 4 3 2 1 4 4 5 6 6 7 7 6 4 3 4 5 5 7 9 10 11 11
8 2 2 5 6 14 5 7 5 4 6 9 9 5 11 10 8 8 8 5 5 7 7 8 5 2 1 2 2 2 4 5 6 7 5 4 2 2 5 7 7 8 9 10
8 5 6 9 7 2 4 2 6 11 2 2 2 3 9 15 14 11 12 10 8 9 7 7 7 6 6 5 4 5 3 2 3 5 5 7 7 7 6 5 5 6 8 9
1 3 6 8 2 1 4 6 7 3 5 3 4 4 3 8 15 18 15 12 9 9 8 8 9 7 6 5 5 5 5 4 2 2 3 3 5 4 4 5 7 8 7 8
4 2 3 3 3 5 9 7 6 3 1 2 1 4 2 6 12 14 14 14 12 11 9 7 7 6 7 6 6 6 7 7 5 3 4 5 5 4 4 5 5 5 5 5
3 3 2 2 8 2 4 3 3 1 2 2 2 5 7 4 6 12 17 17 13 11 9 8 9 9 8 8 9 7 8 9 7 6 6 7 6 6 6 5 5 6 5 4
6 3 0 3 2 5 3 2 4 4 3 1 2 7 3 2 6 8 11 17 13 12 10 10 10 8 8 8 8 8 9 10 8 9 9 8 8 6 5 6 5 5 5 5
5 3 2 3 2 2 5 3 3 6 2 2 3 5 6 1 2 2 10 15 15 12 11 11 10 9 9 9 9 8 8 10 10 11 9 10 9 9 8 9 7 6 6 5
5 7 1 1 2 8 1 7 4 2 4 4 4 5 4 2 3 4 9 15 13 10 10 11 9 7 6 8 9 8 9 11 12 12 10 9 11 11 10 9 10 10 9 9
4 4 0 1 4 7 3 2 5 3 1 3 2 3 2 3 6 8 11 13 12 11 9 5 5 5 6 7 8 9 10 11 12 12 11 11 12 11 11 11 12 12 11 11
2 5 4 1 1 2 1 2 5 4 5 1 1 4 1 7 6 7 8 6 3 3 5 5 5 5 6 8 9 9 9 9 10 10 10 11 11 11 11 12 14 13 13 12
8 2 4 1 1 2 3 2 3 3 2 7 4 2 3 2 5 5 6 3 2 4 8 9 9 9 9 9 10 11 11 12 13 12 11 10 10 10 12 13 13 13 14 15
6 4 3 6 3 5 4 4 2 2 4 6 7 2 4 5 8 7 7 10 11 10 9 8 8 9 9 10 11 11 12 12 13 12 12 12 13 13 12 13 13 13 13 14
3 4 4 1 1 3 4 5 11 8 3 7 3 7 3 8 5 6 10 10 10 9 9 9 9 8 10 11 11 11 12 12 13 13 13 13 13 13 14 14 14 14 14 14
1 4 3 2 2 2 4 7 11 13 7 11 4 6 5 2 9 10 10 10 9 8 8 8 9 10 10 11 11 11 12 12 12 12 13 13 14 15 14 15 16 16 16 17
4 7 3 2 1 1 8 12 15 8 6 7 10 4 11 8 9 10 9 8 9 8 7 7 7 7 7 9 9 10 11 11 11 12 13 14 14 15 15 16 16 16 17 17
5 5 3 3 2 2 1 2 7 12 5 11 3 6 11 11 8 7 5 9 8 6 6 6 5 6 8 8 9 10 10 11 11 12 13 14 15 16 16 16 17 17 16 17
1 5 5 3 3 5 2 4 6 7 3 13 10 9 12 13 9 4 5 6 7 7 5 4 5 6 8 10 10 11 11 11 12 13 14 15 16 17 17 18 18 17 17 17
5 6 4 3 3 6 0 1 4 3 4 8 10 14 16 11 7 4 8 7 7 6 5 4 5 5 6 9 10 11 12 12 13 14 15 16 16 17 17 18 18 15 15 16
2 3 4 2 3 7 2 1 4 3 1 8 10 14 14 7 2 11 9 7 5 4 2 3 5 6 8 10 11 12 12 12 14 14 15 15 16 17 17 17 15 14 15 16
7 7 4 4 2 8 1 3 4 2 3 8 9 6 8 9 9 9 8 6 4 2 1 4 6 8 9 11 11 12 13 13 13 13 14 15 15 13 14 18 17 17 16 17
5 5 6 8 3 2 2 2 3 2 5 6 9 8 11 10 7 8 6 4 3 2 5 6 7 9 10 11 11 13 13 12 13 13 15 15 16 16 16 17 18 15 15 14
3 3 2 4 3 1 2 3 3 4 9 9 10 9 7 7 6 5 5 3 1 4 7 8 10 11 12 11 11 11 12 12 13 14 15 15 15 15 15 13 12 12 13 13
2 8 6 2 2 5 4 6 9 11 10 11 9 7 6 7 5 5 4 2 4 6 9 10 11 11 12 12 12 11 12 11 12 14 14 15 13 15 14 13 13 12 15 13
4 5 5 4 8 3 8 8 10 11 9 7 9 9 7 7 6 5 3 3 6 9 11 11 12 12 12 12 12 12 11 11 13 14 13 12 13 12 11 13 13 19 16 22
Wind_Direction
30 104 117 21 358 78 108 119 108 85 61 98 299 159 177 175 182 188 188 181 178 164 149 138 61 52 80 46 38 33 35 27 27 27 19 28 35 31 35 33 32 28 23 24
59 80 351 45 87 95 105 115 91 101 15 108 157 173 191 204 212 209 208 188 185 176 182 184 198 58 55 39 23 25 33 33 34 32 25 12 10 28 26 28 33 29 27 26
95 56 74 127 100 106 47 123 155 127 103 75 133 193 214 219 221 218 230 223 211 209 197 202 205 215 181 208 239 316 356 14 36 26 24 21 32 19 17 20 24 27 25 27
72 351 92 92 83 38 87 84 113 123 99 84 347 308 210 205 209 217 209 205 207 200 205 202 200 208 216 218 237 251 268 326 31 26 29 25 24 16 6 359 3 15 26 27
69 45 80 71 5 6 128 131 116 106 98 169 180 272 133 199 216 216 208 206 202 205 208 200 206 217 222 225 241 247 263 258 243 28 13 356 18 8 347 350 351 4 11 20
91 85 52 114 72 93 140 100 63 67 37 321 57 223 228 182 232 215 205 200 196 201 213 213 213 226 234 234 244 250 258 266 267 270 283 294 313 341 344 353 348 352 353 360
29 17 11 48 99 70 96 109 38 21 18 267 1 205 280 236 235 223 202 192 192 196 203 207 210 221 233 235 238 239 243 259 256 255 257 258 267 287 302 322 333 330 336 344
149 195 43 4 65 154 106 158 153 197 202 349 103 238 243 260 296 249 209 184 181 195 206 216 218 225 236 239 240 239 247 262 259 253 253 252 258 263 275 282 295 295 299 306
137 90 326 54 103 316 156 180 98 106 54 248 209 259 263 304 31 159 170 172 183 197 205 221 229 235 240 246 251 259 268 264 265 262 261 254 250 250 259 266 270 277 278 275
175 112 318 154 111 52 269 132 130 41 174 239 222 263 249 287 212 178 181 182 188 200 217 229 236 255 290 303 307 302 290 283 284 277 267 266 267 260 257 258 257 259 266 263
131 100 176 228 205 166 145 166 65 105 199 210 274 226 200 279 256 207 193 188 191 206 227 284 300 302 303 301 300 300 298 295 292 289 280 267 264 259 261 260 260 253 259 258
133 116 132 261 33 43 121 216 171 154 188 188 350 271 331 278 258 208 192 196 214 262 281 291 313 341 7 17 15 11 4 355 344 324 303 288 283 282 274 269 270 273 266 265
175 118 108 142 217 2 217 125 87 92 83 191 168 222 0 24 121 161 170 136 101 81 82 80 67 49 36 24 14 9 9 359 354 349 347 338 328 319 308 300 295 290 282 276
107 113 174 192 163 129 175 184 197 141 167 166 226 161 187 126 104 115 111 114 105 93 84 72 55 42 33 25 18 12 10 9 1 1 2 2 355 347 340 332 325 318 309 298
125 127 117 191 173 159 168 165 186 201 191 206 141 200 184 180 149 132 125 117 107 90 70 57 49 38 28 20 16 11 9 5 1 1 2 358 352 348 345 342 335 327 318 309
43 139 142 125 164 231 251 202 202 217 237 256 242 247 190 147 131 137 130 122 103 85 68 50 40 34 27 19 11 7 4 2 358 357 354 350 347 344 342 338 335 330 326 321
125 137 142 186 56 290 280 219 194 189 193 206 217 231 156 154 150 138 129 117 107 90 67 52 44 38 25 16 6 3 356 351 351 349 347 345 342 337 334 331 328 325 322 318
135 106 89 140 130 216 263 144 199 215 199 198 171 165 172 157 123 116 121 124 108 97 85 69 50 31 18 5 1 351 350 347 342 338 334 333 333 329 326 324 322 319 319 315
38 122 102 158 209 305 193 188 169 189 246 193 188 151 143 130 121 104 113 112 116 113 106 84 40 17 5 358 346 338 334 333 332 334 332 330 328 325 324 323 321 319 318 317
65 63 102 155 186 218 154 222 176 187 279 173 167 160 154 157 189 153 156 142 135 125 96 49 14 358 351 349 341 333 333 334 332 329 324 321 321 319 319 319 317 316 312 310
127 47 138 142 242 284 202 67 172 179 320 148 162 162 162 179 61 130 145 146 140 139 138 21 1 350 351 343 338 332 329 329 327 324 322 322 321 320 316 316 317 313 311 307
171 149 170 118 198 263 146 127 200 29 95 127 128 130 143 121 127 139 151 148 149 124 359 348 339 338 337 337 332 328 325 329 325 324 322 323 321 318 315 314 313 312 308 308
204 186 176 192 210 45 354 333 10 238 136 121 118 120 128 137 148 154 153 138 106 48 344 334 322 318 324 331 328 323 327 328 327 326 326 323 324 322 321 319 318 317 315 312
221 159 136 157 170 158 74 82 83 125 107 109 117 119 120 120 137 133 124 119 35 345 332 324 315 315 321 327 320 319 323 327 327 327 325 322 322 320 310 313 312 313 307 304
182 148 148 78 175 122 85 110 118 105 101 98 88 94 108 125 114 120 109 47 346 325 321 322 314 311 319 323 319 323 323 325 322 322 320 318 314 310 311 311 313 307 301 301
188 153 183 213 165 118 142 134 123 112 111 111 115 97 86 108 110 96 63 342 319 321 321 319 314 310 317 318 317 322 321 320 318 317 317 317 311 311 315 313 311 306 297 308